Back to Top

Language: 

My Weather Underground Personal Weather Station Historical Data with Graphs...

Delerius Weather Station Historical Data
Daily Summary for September 28, 2017 Units:  English    Metric   Both
« Previous Day
Next Day »
Daily Weekly Monthly Yearly Custom
  High: Low: Average:
Temperature: 67.6 °F 54.7 °F 59.9 °F
Dew Point: 57.9 °F 50.6 °F 54.5 °F
Humidity: 98 % 61 % 84 %
Wind Speed: 9.0 mph 0.0 mph 2.8 mph
Wind Gust: 16.0 mph - -
Wind:- - SSW
Pressure: 30.04 in 29.94 in -
Precipitation: 0.06 in    
Historical Graphs
 
 
Tabular Data for September 28, 2017
Time Temperature Dew Point Pressure Wind Wind Speed Wind Gust Humidity Rainfall Rate (Hourly) solar Conditions
00:01 56.5 °F 55.1 °F 29.97 in SE 9.0 mph 16.0 mph 95 % 0.06 in 0 W/m2
00:06 56.5 °F 55.1 °F 29.97 in SE 9.0 mph 16.0 mph 95 % 0.05 in 0 W/m2
00:11 56.5 °F 55.1 °F 29.97 in SE 8.0 mph 14.0 mph 95 % 0.05 in 0 W/m2
00:16 56.5 °F 55.1 °F 29.96 in SE 8.0 mph 13.0 mph 95 % 0.05 in 0 W/m2
00:21 56.5 °F 55.4 °F 29.96 in SE 7.0 mph 13.0 mph 96 % 0.04 in 0 W/m2
00:31 56.5 °F 55.4 °F 29.96 in SE 7.0 mph 11.0 mph 96 % 0.04 in 0 W/m2
00:36 56.5 °F 55.4 °F 29.96 in SE 8.0 mph 13.0 mph 96 % 0.03 in 0 W/m2
00:41 56.5 °F 55.4 °F 29.96 in SE 9.0 mph 13.0 mph 96 % 0.02 in 0 W/m2
00:47 56.5 °F 55.4 °F 29.96 in SE 9.0 mph 12.0 mph 96 % 0.02 in 0 W/m2
00:52 56.5 °F 55.4 °F 29.95 in SE 8.0 mph 14.0 mph 96 % 0.01 in 0 W/m2
00:57 56.5 °F 55.4 °F 29.95 in SE 8.0 mph 14.0 mph 96 % 0.02 in 0 W/m2
01:02 56.5 °F 55.4 °F 29.95 in SE 8.0 mph 13.0 mph 96 % 0.02 in 0 W/m2
01:07 56.3 °F 55.2 °F 29.95 in SE 8.0 mph 14.0 mph 96 % 0.02 in 0 W/m2
01:11 56.5 °F 55.4 °F 29.95 in SE 8.0 mph 14.0 mph 96 % 0.02 in 0 W/m2
01:16 56.5 °F 55.4 °F 29.95 in SE 7.0 mph 12.0 mph 96 % 0.02 in 0 W/m2
01:21 56.5 °F 55.4 °F 29.95 in SE 7.0 mph 12.0 mph 96 % 0.02 in 0 W/m2
01:27 56.5 °F 55.4 °F 29.95 in SE 6.0 mph 11.0 mph 96 % 0.02 in 0 W/m2
01:32 56.5 °F 55.4 °F 29.95 in SE 6.0 mph 11.0 mph 96 % 0.02 in 0 W/m2
01:36 56.5 °F 55.4 °F 29.95 in SE 6.0 mph 10.0 mph 96 % 0.02 in 0 W/m2
01:42 56.5 °F 55.4 °F 29.95 in SE 5.0 mph 9.0 mph 96 % 0.02 in 0 W/m2
01:47 56.5 °F 55.6 °F 29.95 in SE 5.0 mph 9.0 mph 97 % 0.03 in 0 W/m2
01:52 56.5 °F 55.6 °F 29.95 in SE 5.0 mph 9.0 mph 97 % 0.02 in 0 W/m2
01:57 56.5 °F 55.6 °F 29.95 in SE 5.0 mph 9.0 mph 97 % 0.02 in 0 W/m2
02:02 56.5 °F 55.6 °F 29.95 in SE 5.0 mph 9.0 mph 97 % 0.02 in 0 W/m2
02:07 56.5 °F 55.6 °F 29.95 in SE 4.0 mph 9.0 mph 97 % 0.03 in 0 W/m2
02:12 56.5 °F 55.6 °F 29.95 in SE 4.0 mph 8.0 mph 97 % 0.03 in 0 W/m2
02:17 56.5 °F 55.6 °F 29.95 in SE 4.0 mph 8.0 mph 97 % 0.03 in 0 W/m2
02:22 56.5 °F 55.6 °F 29.95 in SE 4.0 mph 8.0 mph 97 % 0.03 in 0 W/m2
02:27 56.5 °F 55.6 °F 29.95 in SE 4.0 mph 8.0 mph 97 % 0.02 in 0 W/m2
02:32 56.5 °F 55.6 °F 29.95 in SE 3.0 mph 8.0 mph 97 % 0.03 in 0 W/m2
02:37 56.5 °F 55.6 °F 29.95 in SE 4.0 mph 8.0 mph 97 % 0.02 in 0 W/m2
02:42 56.5 °F 55.6 °F 29.95 in SE 4.0 mph 8.0 mph 97 % 0.02 in 0 W/m2
02:47 56.5 °F 55.6 °F 29.95 in SE 3.0 mph 7.0 mph 97 % 0.02 in 0 W/m2
02:52 56.5 °F 55.6 °F 29.95 in SSE 2.0 mph 6.0 mph 97 % 0.02 in 0 W/m2
02:57 56.5 °F 55.6 °F 29.95 in SE 2.0 mph 6.0 mph 97 % 0.02 in 0 W/m2
03:02 56.7 °F 55.8 °F 29.94 in ESE 2.0 mph 6.0 mph 97 % 0.02 in 0 W/m2
03:07 56.5 °F 55.6 °F 29.95 in ESE 2.0 mph 6.0 mph 97 % 0.01 in 0 W/m2
03:12 56.7 °F 55.8 °F 29.95 in SE 3.0 mph 6.0 mph 97 % 0.01 in 0 W/m2
03:17 56.7 °F 55.8 °F 29.95 in SSE 2.0 mph 6.0 mph 97 % 0.01 in 0 W/m2
03:22 56.7 °F 55.8 °F 29.95 in SSE 1.0 mph 5.0 mph 97 % 0.01 in 0 W/m2
03:27 56.7 °F 55.8 °F 29.95 in Calm   5.0 mph 97 % 0.01 in 0 W/m2
03:32 56.7 °F 55.8 °F 29.95 in SSE 2.0 mph 6.0 mph 97 % 0.00 in 0 W/m2
03:37 56.7 °F 55.8 °F 29.95 in SSE 4.0 mph 7.0 mph 97 % 0.00 in 0 W/m2
03:42 56.7 °F 55.8 °F 29.95 in SSE 4.0 mph 7.0 mph 97 % 0.00 in 0 W/m2
03:47 56.7 °F 55.8 °F 29.94 in SSE 3.0 mph 6.0 mph 97 % 0.00 in 0 W/m2
03:52 56.8 °F 56.0 °F 29.94 in SSE 3.0 mph 6.0 mph 97 % 0.00 in 0 W/m2
03:57 56.7 °F 55.8 °F 29.95 in SSE 3.0 mph 6.0 mph 97 % 0.00 in 0 W/m2
04:02 56.8 °F 56.0 °F 29.95 in SSE 3.0 mph 6.0 mph 97 % 0.00 in 0 W/m2
04:07 56.8 °F 56.0 °F 29.95 in SSE 2.0 mph 6.0 mph 97 % 0.00 in 0 W/m2
04:12 56.8 °F 56.0 °F 29.95 in South 2.0 mph 6.0 mph 97 % 0.00 in 0 W/m2
04:17 56.8 °F 56.0 °F 29.94 in South 2.0 mph 5.0 mph 97 % 0.00 in 0 W/m2
04:22 56.8 °F 56.0 °F 29.94 in SSW 1.0 mph 5.0 mph 97 % 0.00 in 0 W/m2
04:27 56.8 °F 56.0 °F 29.94 in SSW 1.0 mph 4.0 mph 97 % 0.00 in 0 W/m2
04:32 56.8 °F 56.0 °F 29.95 in SSW 1.0 mph 4.0 mph 97 % 0.00 in 0 W/m2
04:37 56.8 °F 56.0 °F 29.95 in Calm   4.0 mph 97 % 0.00 in 0 W/m2
04:42 56.8 °F 56.0 °F 29.95 in Calm   1.0 mph 97 % 0.00 in 0 W/m2
04:47 56.7 °F 55.8 °F 29.95 in Calm     97 % 0.00 in 0 W/m2
04:52 56.7 °F 55.8 °F 29.95 in Calm     97 % 0.00 in 0 W/m2
04:57 56.7 °F 55.8 °F 29.94 in Calm     97 % 0.00 in 0 W/m2
05:02 56.7 °F 55.8 °F 29.94 in Calm     97 % 0.00 in 0 W/m2
05:03 56.7 °F 55.8 °F 29.94 in Calm     97 % 0.00 in 0 W/m2
05:08 56.7 °F 55.8 °F 29.94 in Calm     97 % 0.00 in 0 W/m2
05:13 56.7 °F 55.8 °F 29.95 in Calm     97 % 0.00 in 0 W/m2
05:18 56.7 °F 55.8 °F 29.95 in Calm   1.0 mph 97 % 0.00 in 0 W/m2
05:23 56.7 °F 55.8 °F 29.95 in Calm   2.0 mph 97 % 0.00 in 0 W/m2
05:28 56.7 °F 55.8 °F 29.95 in Calm   2.0 mph 97 % 0.00 in 0 W/m2
05:33 56.7 °F 55.8 °F 29.95 in Calm   2.0 mph 97 % 0.00 in 0 W/m2
05:38 56.7 °F 55.8 °F 29.95 in Calm   2.0 mph 97 % 0.00 in 0 W/m2
05:43 56.7 °F 55.8 °F 29.95 in Calm   1.0 mph 97 % 0.00 in 0 W/m2
05:48 56.7 °F 55.8 °F 29.96 in Calm   1.0 mph 97 % 0.00 in 0 W/m2
05:53 56.7 °F 55.8 °F 29.96 in Calm   1.0 mph 97 % 0.00 in 0 W/m2
05:58 56.7 °F 55.8 °F 29.96 in Calm     97 % 0.00 in 0 W/m2
06:03 56.5 °F 55.6 °F 29.96 in Calm     97 % 0.00 in 0 W/m2
06:08 56.5 °F 55.6 °F 29.96 in Calm     97 % 0.00 in 0 W/m2
06:13 56.5 °F 55.6 °F 29.97 in Calm     97 % 0.00 in 0 W/m2
06:18 56.5 °F 55.6 °F 29.97 in Calm     97 % 0.00 in 0 W/m2
06:23 56.5 °F 55.6 °F 29.97 in Calm     97 % 0.00 in 0 W/m2
06:28 56.5 °F 55.6 °F 29.97 in Calm     97 % 0.00 in 0 W/m2
06:33 56.5 °F 55.6 °F 29.97 in Calm   1.0 mph 97 % 0.00 in 0 W/m2
06:38 56.5 °F 55.6 °F 29.97 in Calm   2.0 mph 97 % 0.00 in 0 W/m2
06:43 56.5 °F 55.6 °F 29.98 in Calm   2.0 mph 97 % 0.00 in 0 W/m2
06:48 56.5 °F 55.6 °F 29.98 in Calm     97 % 0.00 in 0 W/m2
06:53 56.7 °F 55.8 °F 29.98 in Calm   4.0 mph 97 % 0.00 in 0 W/m2
06:58 56.7 °F 56.1 °F 29.99 in WSW 1.0 mph 5.0 mph 98 % 0.00 in 0 W/m2
07:03 56.7 °F 56.1 °F 29.99 in West 2.0 mph 7.0 mph 98 % 0.00 in 0 W/m2
07:08 56.7 °F 55.8 °F 29.99 in West 2.0 mph 7.0 mph 97 % 0.00 in 0 W/m2
07:13 56.5 °F 55.6 °F 29.99 in West 1.0 mph 5.0 mph 97 % 0.00 in 5 W/m2
07:18 56.5 °F 55.6 °F 29.99 in WNW 1.0 mph 7.0 mph 97 % 0.00 in 11 W/m2
07:23 56.5 °F 55.6 °F 29.99 in WNW 1.0 mph 7.0 mph 97 % 0.00 in 12 W/m2
07:28 56.3 °F 55.5 °F 29.99 in WNW 1.0 mph 5.0 mph 97 % 0.00 in 18 W/m2
07:33 56.1 °F 55.3 °F 30.00 in Calm   4.0 mph 97 % 0.00 in 23 W/m2
07:38 56.1 °F 55.3 °F 30.00 in Calm   5.0 mph 97 % 0.00 in 26 W/m2
07:43 55.9 °F 55.1 °F 30.00 in NW 2.0 mph 8.0 mph 97 % 0.00 in 30 W/m2
07:48 55.8 °F 54.9 °F 30.00 in NW 3.0 mph 8.0 mph 97 % 0.00 in 30 W/m2
07:53 55.4 °F 54.6 °F 30.01 in WNW 3.0 mph 8.0 mph 97 % 0.00 in 37 W/m2
07:58 55.0 °F 54.2 °F 30.01 in WNW 4.0 mph 9.0 mph 97 % 0.00 in 35 W/m2
08:03 54.9 °F 54.0 °F 30.01 in WNW 3.0 mph 9.0 mph 97 % 0.00 in 39 W/m2
08:08 54.9 °F 54.0 °F 30.01 in WNW 1.0 mph 5.0 mph 97 % 0.00 in 40 W/m2
08:13 54.7 °F 53.8 °F 30.01 in Calm   4.0 mph 97 % 0.00 in 46 W/m2
08:18 54.9 °F 54.0 °F 30.01 in Calm   1.0 mph 97 % 0.00 in 176 W/m2
08:23 55.4 °F 54.8 °F 30.01 in Calm     98 % 0.00 in 179 W/m2
08:28 55.9 °F 55.4 °F 30.01 in Calm     98 % 0.00 in 178 W/m2
08:34 56.1 °F 55.6 °F 30.02 in Calm     98 % 0.00 in 67 W/m2
08:39 56.1 °F 55.3 °F 30.02 in Calm     97 % 0.00 in 132 W/m2
08:43 56.1 °F 55.3 °F 30.02 in Calm   5.0 mph 97 % 0.00 in 234 W/m2
08:48 56.5 °F 55.6 °F 30.02 in Calm   5.0 mph 97 % 0.00 in 243 W/m2
08:50 56.7 °F 56.1 °F 30.02 in WNW 1.0 mph 6.0 mph 98 % 0.00 in 244 W/m2
08:55 56.8 °F 56.0 °F 30.02 in WNW 2.0 mph 6.0 mph 97 % 0.00 in 258 W/m2
09:00 57.4 °F 56.5 °F 30.02 in NW 2.0 mph 6.0 mph 97 % 0.00 in 269 W/m2
09:05 57.7 °F 56.9 °F 30.02 in NW 2.0 mph 7.0 mph 97 % 0.00 in 281 W/m2
09:10 57.9 °F 57.1 °F 30.02 in NW 2.0 mph 7.0 mph 97 % 0.00 in 294 W/m2
09:15 58.5 °F 57.6 °F 30.02 in WNW 1.0 mph 4.0 mph 97 % 0.00 in 306 W/m2
09:20 59.0 °F 57.9 °F 30.02 in NW 2.0 mph 6.0 mph 96 % 0.00 in 315 W/m2
09:25 59.2 °F 57.5 °F 30.02 in NW 3.0 mph 7.0 mph 94 % 0.00 in 325 W/m2
09:30 59.2 °F 57.2 °F 30.02 in NW 3.0 mph 7.0 mph 93 % 0.00 in 338 W/m2
09:35 59.5 °F 57.2 °F 30.02 in NW 2.0 mph 7.0 mph 92 % 0.00 in 352 W/m2
09:40 59.9 °F 57.3 °F 30.03 in NW 1.0 mph 6.0 mph 91 % 0.00 in 357 W/m2
09:45 60.3 °F 57.0 °F 30.02 in WNW 2.0 mph 6.0 mph 89 % 0.00 in 373 W/m2
09:50 60.3 °F 56.4 °F 30.02 in West 3.0 mph 7.0 mph 87 % 0.00 in 383 W/m2
09:55 60.4 °F 56.6 °F 30.02 in West 2.0 mph 7.0 mph 87 % 0.00 in 390 W/m2
10:01 60.8 °F 56.3 °F 30.03 in WNW 3.0 mph 7.0 mph 85 % 0.00 in 403 W/m2
10:06 61.2 °F 56.3 °F 30.03 in WNW 4.0 mph 8.0 mph 84 % 0.00 in 415 W/m2
10:11 61.3 °F 55.8 °F 30.03 in NW 3.0 mph 8.0 mph 82 % 0.00 in 424 W/m2
10:16 61.9 °F 56.0 °F 30.03 in WNW 2.0 mph 8.0 mph 81 % 0.00 in 432 W/m2
10:21 62.1 °F 55.8 °F 30.03 in WNW 1.0 mph 6.0 mph 80 % 0.00 in 443 W/m2
10:26 62.2 °F 56.0 °F 30.03 in WNW 1.0 mph 5.0 mph 80 % 0.00 in 457 W/m2
10:31 62.8 °F 56.5 °F 30.03 in WNW 2.0 mph 6.0 mph 80 % 0.00 in 469 W/m2
10:36 63.1 °F 56.2 °F 30.04 in WNW 3.0 mph 7.0 mph 78 % 0.00 in 485 W/m2
10:41 63.3 °F 56.0 °F 30.03 in West 3.0 mph 7.0 mph 77 % 0.00 in 506 W/m2
10:46 63.7 °F 56.7 °F 30.03 in West 3.0 mph 7.0 mph 78 % 0.00 in 550 W/m2
10:50 64.0 °F 56.3 °F 30.04 in WSW 3.0 mph 7.0 mph 76 % 0.00 in 640 W/m2
10:55 63.9 °F 56.1 °F 30.04 in WSW 3.0 mph 6.0 mph 76 % 0.00 in 292 W/m2
11:01 64.0 °F 56.3 °F 30.03 in West 3.0 mph 7.0 mph 76 % 0.00 in 216 W/m2
11:05 64.0 °F 56.0 °F 30.03 in WNW 4.0 mph 7.0 mph 75 % 0.00 in 186 W/m2
11:10 63.9 °F 55.8 °F 30.03 in WNW 3.0 mph 7.0 mph 75 % 0.00 in 729 W/m2
11:15 64.0 °F 56.0 °F 30.03 in WNW 3.0 mph 8.0 mph 75 % 0.00 in 705 W/m2
11:20 64.6 °F 56.5 °F 30.03 in WNW 4.0 mph 8.0 mph 75 % 0.00 in 606 W/m2
11:25 64.9 °F 55.7 °F 30.03 in NW 5.0 mph 10.0 mph 72 % 0.00 in 719 W/m2
11:31 65.5 °F 56.2 °F 30.03 in NW 7.0 mph 10.0 mph 72 % 0.00 in 747 W/m2
11:36 65.7 °F 56.0 °F 30.03 in NW 6.0 mph 10.0 mph 71 % 0.00 in 698 W/m2
11:46 65.5 °F 55.8 °F 30.03 in NW 5.0 mph 9.0 mph 71 % 0.00 in 373 W/m2
11:51 65.5 °F 55.8 °F 30.03 in NW 4.0 mph 9.0 mph 71 % 0.00 in 708 W/m2
11:56 65.5 °F 55.8 °F 30.02 in NW 4.0 mph 10.0 mph 71 % 0.00 in 717 W/m2
12:01 65.5 °F 55.8 °F 30.02 in NW 5.0 mph 10.0 mph 71 % 0.00 in 694 W/m2
12:06 65.5 °F 55.8 °F 30.03 in NW 4.0 mph 8.0 mph 71 % 0.00 in 163 W/m2
12:11 65.1 °F 54.7 °F 30.03 in WNW 4.0 mph 10.0 mph 69 % 0.00 in 214 W/m2
12:16 64.9 °F 55.3 °F 30.02 in WNW 3.0 mph 10.0 mph 71 % 0.00 in 239 W/m2
12:21 64.8 °F 55.1 °F 30.03 in NW 2.0 mph 6.0 mph 71 % 0.00 in 141 W/m2
12:26 64.8 °F 55.1 °F 30.03 in NW 2.0 mph 7.0 mph 71 % 0.00 in 162 W/m2
12:31 64.8 °F 55.5 °F 30.03 in NW 3.0 mph 8.0 mph 72 % 0.00 in 209 W/m2
12:36 64.9 °F 55.3 °F 30.03 in WNW 4.0 mph 8.0 mph 71 % 0.00 in 230 W/m2
12:41 64.9 °F 55.7 °F 30.03 in WNW 4.0 mph 8.0 mph 72 % 0.00 in 766 W/m2
12:46 65.3 °F 55.3 °F 30.03 in WNW 2.0 mph 6.0 mph 70 % 0.00 in 689 W/m2
12:51 65.7 °F 55.2 °F 30.03 in WNW 1.0 mph 5.0 mph 69 % 0.00 in 229 W/m2
12:56 65.5 °F 55.0 °F 30.03 in WSW 1.0 mph 5.0 mph 69 % 0.00 in 190 W/m2
13:01 65.1 °F 55.1 °F 30.03 in SW 1.0 mph 5.0 mph 70 % 0.00 in 171 W/m2
13:06 64.9 °F 54.5 °F 30.03 in SSW 2.0 mph 7.0 mph 69 % 0.00 in 181 W/m2
13:11 64.6 °F 54.6 °F 30.04 in SSW 2.0 mph 7.0 mph 70 % 0.00 in 197 W/m2
13:16 64.4 °F 54.8 °F 30.03 in South 1.0 mph 5.0 mph 71 % 0.00 in 200 W/m2
13:21 64.4 °F 55.2 °F 30.03 in Calm   4.0 mph 72 % 0.00 in 234 W/m2
13:26 64.4 °F 54.4 °F 30.03 in South 1.0 mph 4.0 mph 70 % 0.00 in 186 W/m2
13:31 64.6 °F 54.6 °F 30.03 in South 1.0 mph 5.0 mph 70 % 0.00 in 162 W/m2
13:36 64.4 °F 54.4 °F 30.03 in SSE 1.0 mph 5.0 mph 70 % 0.00 in 118 W/m2
13:41 64.6 °F 55.0 °F 30.03 in SSE 1.0 mph 3.0 mph 71 % 0.00 in 118 W/m2
13:46 64.4 °F 54.8 °F 30.03 in South 1.0 mph 4.0 mph 71 % 0.00 in 214 W/m2
13:56 64.8 °F 55.5 °F 30.03 in WSW 1.0 mph 4.0 mph 72 % 0.00 in 213 W/m2
14:01 64.9 °F 55.7 °F 30.03 in West 1.0 mph 7.0 mph 72 % 0.00 in 237 W/m2
14:06 64.9 °F 54.9 °F 30.03 in WNW 2.0 mph 7.0 mph 70 % 0.00 in 218 W/m2
14:11 65.3 °F 55.3 °F 30.03 in WNW 1.0 mph 6.0 mph 70 % 0.00 in 696 W/m2
14:17 65.7 °F 54.8 °F 30.02 in NNE 1.0 mph 5.0 mph 68 % 0.00 in 714 W/m2
14:22 66.0 °F 55.2 °F 30.02 in NE 1.0 mph 5.0 mph 68 % 0.00 in 352 W/m2
14:27 66.2 °F 54.9 °F 30.03 in South 1.0 mph 9.0 mph 67 % 0.00 in 179 W/m2
14:32 66.0 °F 54.3 °F 30.03 in WSW 3.0 mph 10.0 mph 66 % 0.00 in 162 W/m2
14:37 65.8 °F 54.2 °F 30.02 in WSW 3.0 mph 10.0 mph 66 % 0.00 in 195 W/m2
14:42 65.8 °F 54.6 °F 30.02 in WSW 2.0 mph 5.0 mph 67 % 0.00 in 708 W/m2
14:47 66.4 °F 55.1 °F 30.03 in WSW 3.0 mph 7.0 mph 67 % 0.00 in 659 W/m2
14:52 66.7 °F 55.4 °F 30.02 in WSW 3.0 mph 7.0 mph 67 % 0.00 in 645 W/m2
14:57 67.3 °F 55.1 °F 30.02 in WSW 4.0 mph 9.0 mph 65 % 0.00 in 153 W/m2
15:02 67.1 °F 54.5 °F 30.02 in WSW 5.0 mph 9.0 mph 64 % 0.00 in 142 W/m2
15:07 66.6 °F 54.4 °F 30.02 in SW 3.0 mph 7.0 mph 65 % 0.00 in 163 W/m2
15:12 66.6 °F 54.0 °F 30.02 in SSW 2.0 mph 6.0 mph 64 % 0.00 in 608 W/m2
15:17 66.9 °F 54.3 °F 30.02 in SSW 2.0 mph 5.0 mph 64 % 0.00 in 571 W/m2
15:22 67.5 °F 54.4 °F 30.02 in South 2.0 mph 9.0 mph 63 % 0.00 in 512 W/m2
15:27 67.6 °F 53.7 °F 30.02 in SSW 4.0 mph 10.0 mph 61 % 0.00 in 468 W/m2
15:32 67.5 °F 53.5 °F 30.02 in SSW 6.0 mph 10.0 mph 61 % 0.00 in 100 W/m2
15:37 67.5 °F 54.0 °F 30.02 in SSW 4.0 mph 8.0 mph 62 % 0.00 in 432 W/m2
15:42 67.6 °F 54.2 °F 30.02 in SSW 3.0 mph 8.0 mph 62 % 0.00 in 436 W/m2
15:47 67.5 °F 53.5 °F 30.02 in SSW 5.0 mph 9.0 mph 61 % 0.00 in 399 W/m2
15:52 67.5 °F 53.5 °F 30.02 in SSW 5.0 mph 9.0 mph 61 % 0.00 in 406 W/m2
15:57 67.5 °F 54.0 °F 30.01 in SSW 4.0 mph 8.0 mph 62 % 0.00 in 374 W/m2
16:02 67.3 °F 53.8 °F 30.01 in SW 4.0 mph 8.0 mph 62 % 0.00 in 339 W/m2
16:07 67.3 °F 53.8 °F 30.01 in SSW 4.0 mph 8.0 mph 62 % 0.00 in 350 W/m2
16:12 66.7 °F 53.3 °F 30.01 in SSW 4.0 mph 7.0 mph 62 % 0.00 in 200 W/m2
16:17 66.4 °F 53.0 °F 30.01 in SSW 4.0 mph 8.0 mph 62 % 0.00 in 186 W/m2
16:22 66.2 °F 53.7 °F 30.01 in SSW 4.0 mph 8.0 mph 64 % 0.00 in 264 W/m2
16:27 66.2 °F 53.7 °F 30.01 in South 5.0 mph 9.0 mph 64 % 0.00 in 244 W/m2
16:32 66.2 °F 53.2 °F 30.01 in SSW 6.0 mph 10.0 mph 63 % 0.00 in 353 W/m2
16:37 66.6 °F 53.6 °F 30.01 in SSW 7.0 mph 10.0 mph 63 % 0.00 in 345 W/m2
16:42 66.6 °F 53.6 °F 30.01 in SSW 7.0 mph 11.0 mph 63 % 0.00 in 283 W/m2
16:48 66.6 °F 53.6 °F 30.01 in SSW 6.0 mph 11.0 mph 63 % 0.00 in 292 W/m2
16:53 66.6 °F 53.1 °F 30.01 in SSW 6.0 mph 11.0 mph 62 % 0.00 in 258 W/m2
16:58 66.4 °F 53.0 °F 30.01 in SW 7.0 mph 13.0 mph 62 % 0.00 in 193 W/m2
17:03 66.0 °F 53.1 °F 30.01 in SW 8.0 mph 13.0 mph 63 % 0.00 in 204 W/m2
17:08 65.8 °F 53.3 °F 30.01 in SSW 6.0 mph 11.0 mph 64 % 0.00 in 151 W/m2
17:13 65.7 °F 53.6 °F 30.01 in SSW 6.0 mph 13.0 mph 65 % 0.00 in 141 W/m2
17:18 65.5 °F 53.4 °F 30.01 in SSW 7.0 mph 13.0 mph 65 % 0.00 in 155 W/m2
17:23 65.1 °F 53.5 °F 30.01 in SW 7.0 mph 13.0 mph 66 % 0.00 in 86 W/m2
17:28 64.8 °F 53.1 °F 30.01 in SW 6.0 mph 11.0 mph 66 % 0.00 in 81 W/m2
17:33 64.4 °F 53.2 °F 30.01 in SSW 6.0 mph 9.0 mph 67 % 0.00 in 74 W/m2
17:38 64.2 °F 53.0 °F 30.01 in SSW 6.0 mph 9.0 mph 67 % 0.00 in 76 W/m2
17:43 64.0 °F 53.3 °F 30.02 in SSW 5.0 mph 9.0 mph 68 % 0.00 in 65 W/m2
17:48 63.9 °F 53.1 °F 30.02 in SSW 5.0 mph 9.0 mph 68 % 0.00 in 76 W/m2
17:53 63.7 °F 53.3 °F 30.02 in SSW 4.0 mph 9.0 mph 69 % 0.00 in 74 W/m2
17:58 63.3 °F 53.0 °F 30.02 in SSW 4.0 mph 7.0 mph 69 % 0.00 in 65 W/m2
18:03 63.3 °F 53.0 °F 30.02 in SSW 4.0 mph 7.0 mph 69 % 0.00 in 53 W/m2
18:08 63.1 °F 53.2 °F 30.02 in SSW 3.0 mph 6.0 mph 70 % 0.00 in 39 W/m2
18:13 63.0 °F 53.4 °F 30.02 in SSW 2.0 mph 5.0 mph 71 % 0.00 in 30 W/m2
18:18 62.8 °F 52.8 °F 30.02 in SSW 2.0 mph 7.0 mph 70 % 0.00 in 23 W/m2
18:23 62.8 °F 53.2 °F 30.02 in South 2.0 mph 7.0 mph 71 % 0.00 in 14 W/m2
18:28 62.4 °F 52.9 °F 30.02 in South 1.0 mph 5.0 mph 71 % 0.00 in 11 W/m2
18:34 62.4 °F 52.9 °F 30.02 in South 2.0 mph 5.0 mph 71 % 0.00 in 7 W/m2
18:39 62.2 °F 53.1 °F 30.02 in South 2.0 mph 5.0 mph 72 % 0.00 in 7 W/m2
18:44 62.1 °F 52.9 °F 30.02 in South 2.0 mph 6.0 mph 72 % 0.00 in 5 W/m2
18:49 61.9 °F 52.8 °F 30.02 in South 2.0 mph 6.0 mph 72 % 0.00 in 0 W/m2
18:54 61.7 °F 53.3 °F 30.02 in South 2.0 mph 5.0 mph 74 % 0.00 in 0 W/m2
18:59 61.3 °F 53.0 °F 30.03 in South 1.0 mph 4.0 mph 74 % 0.00 in 0 W/m2
19:04 61.2 °F 53.2 °F 30.02 in Calm   4.0 mph 75 % 0.00 in 0 W/m2
19:09 61.0 °F 53.4 °F 30.02 in Calm   3.0 mph 76 % 0.00 in 0 W/m2
19:14 60.8 °F 53.5 °F 30.02 in Calm     77 % 0.00 in 0 W/m2
19:19 60.6 °F 53.7 °F 30.02 in Calm     78 % 0.00 in 0 W/m2
19:24 60.3 °F 53.7 °F 30.02 in Calm   1.0 mph 79 % 0.00 in 0 W/m2
19:29 60.1 °F 53.5 °F 30.03 in South 1.0 mph 5.0 mph 79 % 0.00 in 0 W/m2
19:34 59.7 °F 53.5 °F 30.03 in SSE 2.0 mph 6.0 mph 80 % 0.00 in 0 W/m2
19:39 59.7 °F 53.5 °F 30.03 in SSE 2.0 mph 6.0 mph 80 % 0.00 in 0 W/m2
19:44 59.7 °F 53.5 °F 30.02 in SE 1.0 mph 4.0 mph 80 % 0.00 in 0 W/m2
19:49 59.7 °F 53.9 °F 30.03 in SE 1.0 mph 3.0 mph 81 % 0.00 in 0 W/m2
19:54 59.5 °F 53.7 °F 30.03 in SE 1.0 mph 4.0 mph 81 % 0.00 in 0 W/m2
19:59 59.4 °F 53.5 °F 30.03 in SE 1.0 mph 4.0 mph 81 % 0.00 in 0 W/m2
20:00 59.4 °F 53.5 °F 30.03 in SE 1.0 mph 4.0 mph 81 % 0.00 in 0 W/m2
20:05 59.0 °F 53.2 °F 30.02 in SE 1.0 mph 3.0 mph 81 % 0.00 in 0 W/m2
20:10 58.8 °F 53.3 °F 30.02 in SE 1.0 mph 3.0 mph 82 % 0.00 in 0 W/m2
20:15 58.8 °F 53.3 °F 30.02 in SE 1.0 mph 3.0 mph 82 % 0.00 in 0 W/m2
20:20 58.6 °F 53.2 °F 30.02 in SE 1.0 mph 5.0 mph 82 % 0.00 in 0 W/m2
20:25 58.6 °F 53.2 °F 30.02 in SE 2.0 mph 5.0 mph 82 % 0.00 in 0 W/m2
20:30 58.6 °F 53.2 °F 30.02 in SE 2.0 mph 5.0 mph 82 % 0.00 in 0 W/m2
20:35 58.5 °F 53.3 °F 30.02 in SE 2.0 mph 5.0 mph 83 % 0.00 in 0 W/m2
20:40 58.3 °F 53.1 °F 30.02 in SE 2.0 mph 7.0 mph 83 % 0.00 in 0 W/m2
20:45 58.3 °F 53.1 °F 30.02 in SE 2.0 mph 7.0 mph 83 % 0.00 in 0 W/m2
20:50 58.3 °F 53.1 °F 30.02 in SE 3.0 mph 6.0 mph 83 % 0.00 in 0 W/m2
20:55 58.1 °F 53.0 °F 30.01 in SE 4.0 mph 7.0 mph 83 % 0.00 in 0 W/m2
21:00 57.9 °F 52.8 °F 30.01 in SSE 5.0 mph 10.0 mph 83 % 0.00 in 0 W/m2
21:05 57.9 °F 52.5 °F 30.01 in SSE 5.0 mph 10.0 mph 82 % 0.00 in 0 W/m2
21:10 57.9 °F 52.5 °F 30.01 in SSE 5.0 mph 8.0 mph 82 % 0.00 in 0 W/m2
21:15 57.7 °F 52.3 °F 30.01 in SSE 6.0 mph 8.0 mph 82 % 0.00 in 0 W/m2
21:20 57.7 °F 52.3 °F 30.01 in SSE 6.0 mph 8.0 mph 82 % 0.00 in 0 W/m2
21:25 57.6 °F 52.1 °F 30.01 in SSE 4.0 mph 8.0 mph 82 % 0.00 in 0 W/m2
21:30 57.6 °F 52.1 °F 30.01 in SSE 3.0 mph 7.0 mph 82 % 0.00 in 0 W/m2
21:35 57.4 °F 51.9 °F 30.01 in South 3.0 mph 7.0 mph 82 % 0.00 in 0 W/m2
21:40 57.2 °F 51.8 °F 30.01 in South 1.0 mph 5.0 mph 82 % 0.00 in 0 W/m2
21:45 57.0 °F 51.9 °F 30.01 in South 1.0 mph 5.0 mph 83 % 0.00 in 0 W/m2
21:50 56.8 °F 51.7 °F 30.01 in South 2.0 mph 5.0 mph 83 % 0.00 in 0 W/m2
21:55 56.7 °F 51.6 °F 30.01 in SSE 3.0 mph 5.0 mph 83 % 0.00 in 0 W/m2
22:00 56.5 °F 51.4 °F 30.01 in SSE 4.0 mph 6.0 mph 83 % 0.00 in 0 W/m2
22:05 56.3 °F 51.2 °F 30.00 in SSE 4.0 mph 8.0 mph 83 % 0.00 in 0 W/m2
22:10 56.1 °F 51.0 °F 30.01 in SE 4.0 mph 8.0 mph 83 % 0.00 in 0 W/m2
22:15 56.1 °F 51.0 °F 30.00 in SE 4.0 mph 7.0 mph 83 % 0.00 in 0 W/m2
22:20 56.1 °F 50.7 °F 30.00 in SE 4.0 mph 7.0 mph 82 % 0.00 in 0 W/m2
22:25 56.3 °F 50.9 °F 30.01 in SE 3.0 mph 6.0 mph 82 % 0.00 in 0 W/m2
22:30 56.3 °F 50.9 °F 30.01 in SE 2.0 mph 5.0 mph 82 % 0.00 in 0 W/m2
22:35 56.1 °F 51.0 °F 30.00 in Calm   4.0 mph 83 % 0.00 in 0 W/m2
22:40 55.9 °F 50.9 °F 30.00 in Calm   4.0 mph 83 % 0.00 in 0 W/m2
22:45 55.8 °F 51.0 °F 30.00 in SE 2.0 mph 6.0 mph 84 % 0.00 in 0 W/m2
22:50 55.4 °F 51.0 °F 30.00 in SSE 3.0 mph 7.0 mph 85 % 0.00 in 0 W/m2
22:55 55.4 °F 51.0 °F 30.00 in SSE 4.0 mph 11.0 mph 85 % 0.00 in 0 W/m2
23:00 55.4 °F 51.0 °F 30.00 in SSE 5.0 mph 11.0 mph 85 % 0.00 in 0 W/m2
23:05 55.2 °F 50.8 °F 30.00 in SE 5.0 mph 9.0 mph 85 % 0.00 in 0 W/m2
23:10 55.2 °F 50.8 °F 30.00 in SE 4.0 mph 9.0 mph 85 % 0.00 in 0 W/m2
23:15 55.2 °F 50.8 °F 30.00 in SE 3.0 mph 7.0 mph 85 % 0.00 in 0 W/m2
23:20 55.0 °F 50.6 °F 29.99 in SSE 2.0 mph 5.0 mph 85 % 0.00 in 0 W/m2
23:25 55.0 °F 50.6 °F 29.99 in South 1.0 mph 6.0 mph 85 % 0.00 in 0 W/m2
23:31 55.0 °F 50.9 °F 29.99 in SW 2.0 mph 6.0 mph 86 % 0.00 in 0 W/m2
23:36 55.0 °F 50.9 °F 29.99 in SW 2.0 mph 6.0 mph 86 % 0.00 in 0 W/m2
23:41 55.0 °F 50.9 °F 29.99 in SW 2.0 mph 5.0 mph 86 % 0.00 in 0 W/m2
23:46 55.0 °F 50.9 °F 29.99 in SSW 2.0 mph 6.0 mph 86 % 0.00 in 0 W/m2
23:51 55.2 °F 51.1 °F 29.99 in South 3.0 mph 8.0 mph 86 % 0.00 in 0 W/m2
23:56 55.2 °F 51.1 °F 29.99 in SSE 3.0 mph 8.0 mph 86 % 0.00 in 0 W/m2
Delerius-Weather
Compliments of Weather Underground - 2.25 mb

Data updates at regular intervals.